| time (UTC) | temp F | wind direction | speed MPH | gust MPH | rain 1hr in | rain 24hr in | rain mn in | humidity % | barometer mb |
| 20260510044520 | 62 | 291 | 0.0 | 5.0 | 0.04 | 0.04 | 0.04 | 85 | 1012.1 |
| 20260510043020 | 62 | 302 | 1.0 | 6.0 | 0.02 | 0.02 | 0.02 | 84 | 1011.8 |
| 20260510041519 | 62 | 335 | 2.0 | 7.0 | 0.01 | 0.01 | 0.01 | 83 | 1012.0 |
| 20260510040024 | 63 | 322 | 5.0 | 13.0 | 0.00 | 0.00 | 0.00 | 81 | 1012.5 |
| 20260510034524 | 64 | 322 | 7.0 | 15.0 | 0.00 | 0.09 | 0.00 | 78 | 1012.6 |
| 20260510033017 | 67 | 303 | 9.0 | 29.0 | 0.00 | 0.09 | 0.00 | 72 | 1012.5 |
| 20260510031518 | 70 | 44 | 0.0 | 0.0 | 0.00 | 0.09 | 0.00 | 54 | 1009.9 |
| 20260510030012 | 70 | 44 | 0.0 | 0.0 | 0.00 | 0.09 | 0.00 | 56 | 1009.4 |
| 20260510024512 | 70 | 44 | 0.0 | 0.0 | 0.00 | 0.20 | 0.00 | 55 | 1009.3 |
| 20260510023008 | 70 | 44 | 0.0 | 0.0 | 0.00 | 0.20 | 0.00 | 54 | 1009.1 |
| 20260510021514 | 70 | 338 | 0.0 | 0.0 | 0.00 | 0.20 | 0.00 | 54 | 1009.0 |
| 20260510020008 | 70 | 338 | 0.0 | 0.0 | 0.00 | 0.20 | 0.00 | 54 | 1008.7 |
| 20260510014508 | 71 | 338 | 0.0 | 0.0 | 0.00 | 0.20 | 0.00 | 53 | 1008.5 |
| 20260510013006 | 72 | 338 | 0.0 | 0.0 | 0.00 | 0.20 | 0.00 | 52 | 1008.5 |
| 20260510011506 | 74 | 320 | 0.0 | 0.0 | 0.00 | 0.20 | 0.00 | 50 | 1008.5 |
| 20260510010006 | 75 | 321 | 0.0 | 0.0 | 0.00 | 0.20 | 0.00 | 46 | 1008.3 |
| 20260510004504 | 76 | 321 | 0.0 | 0.0 | 0.00 | 0.20 | 0.00 | 43 | 1008.1 |
| 20260510003004 | 78 | 320 | 0.0 | 0.0 | 0.00 | 0.20 | 0.00 | 41 | 1008.0 |
| 20260510001504 | 79 | 303 | 0.0 | 1.0 | 0.00 | 0.20 | 0.00 | 40 | 1007.8 |
| 20260510000006 | 80 | 302 | 0.0 | 1.0 | 0.00 | 0.20 | 0.00 | 39 | 1007.7 |
| 20260509234501 | 80 | 248 | 0.0 | 2.0 | 0.00 | 0.20 | 0.00 | 38 | 1007.7 |
| 20260509233001 | 80 | 316 | 0.0 | 3.0 | 0.00 | 0.20 | 0.00 | 37 | 1007.7 |
| 20260509231500 | 80 | 327 | 0.0 | 4.0 | 0.00 | 0.20 | 0.00 | 36 | 1007.7 |
| 20260509224604 | 81 | 298 | 0.0 | 5.0 | 0.00 | 0.20 | 0.00 | 33 | 1007.6 |
| 20260509223106 | 81 | 307 | 1.0 | 4.0 | 0.00 | 0.20 | 0.00 | 33 | 1007.5 |
| 20260509221606 | 82 | 285 | 0.0 | 2.0 | 0.00 | 0.20 | 0.00 | 33 | 1007.6 |
| 20260509220100 | 81 | 340 | 0.0 | 8.0 | 0.00 | 0.20 | 0.00 | 33 | 1007.7 |
| 20260509214604 | 81 | 289 | 3.0 | 8.0 | 0.00 | 0.20 | 0.00 | 32 | 1007.7 |
| 20260509213055 | 81 | 343 | 4.0 | 9.0 | 0.00 | 0.20 | 0.00 | 32 | 1007.7 |
| 20260509211558 | 81 | 297 | 4.0 | 9.0 | 0.00 | 0.20 | 0.00 | 31 | 1007.8 |
| 20260509210112 | 81 | 308 | 4.0 | 7.0 | 0.00 | 0.20 | 0.00 | 34 | 1008.0 |
| 20260509204557 | 81 | 331 | 3.0 | 8.0 | 0.00 | 0.20 | 0.00 | 36 | 1008.0 |
| 20260509203050 | 81 | 297 | 0.0 | 7.0 | 0.00 | 0.20 | 0.00 | 37 | 1008.0 |
| 20260509201556 | 82 | 330 | 0.0 | 6.0 | 0.00 | 0.20 | 0.00 | 36 | 1008.2 |
| 20260509200059 | 81 | 309 | 2.0 | 6.0 | 0.00 | 0.20 | 0.00 | 37 | 1008.3 |
| 20260509194546 | 81 | 267 | 1.0 | 6.0 | 0.00 | 0.20 | 0.00 | 39 | 1008.2 |
| 20260509193044 | 81 | 313 | 1.0 | 5.0 | 0.00 | 0.20 | 0.00 | 41 | 1008.3 |
| 20260509191542 | 80 | 299 | 2.0 | 8.0 | 0.00 | 0.20 | 0.00 | 41 | 1008.5 |
| 20260509190049 | 79 | 276 | 3.0 | 6.0 | 0.00 | 0.20 | 0.00 | 43 | 1008.6 |
| 20260509184538 | 79 | 295 | 1.0 | 9.0 | 0.00 | 0.20 | 0.00 | 47 | 1008.6 |
| 20260509183039 | 79 | 287 | 2.0 | 7.0 | 0.00 | 0.20 | 0.00 | 45 | 1008.6 |
| 20260509181539 | 79 | 249 | 1.0 | 5.0 | 0.00 | 0.20 | 0.00 | 48 | 1008.6 |
| 20260509180034 | 78 | 274 | 0.0 | 8.0 | 0.00 | 0.20 | 0.00 | 51 | 1008.7 |
| 20260509174532 | 77 | 318 | 2.0 | 7.0 | 0.00 | 0.20 | 0.00 | 50 | 1008.8 |
| 20260509173030 | 77 | 285 | 1.0 | 5.0 | 0.00 | 0.20 | 0.00 | 52 | 1008.9 |
| 20260509171537 | 77 | 153 | 1.0 | 6.0 | 0.00 | 0.20 | 0.00 | 52 | 1009.2 |
| 20260509170032 | 77 | 301 | 3.0 | 7.0 | 0.00 | 0.20 | 0.00 | 47 | 1009.1 |
| 20260509164526 | 76 | 240 | 0.0 | 4.0 | 0.00 | 0.20 | 0.00 | 56 | 1009.1 |
| 20260509163025 | 75 | 53 | 1.0 | 5.0 | 0.00 | 0.20 | 0.00 | 54 | 1009.2 |
| 20260509161520 | 74 | 60 | 0.0 | 3.0 | 0.00 | 0.20 | 0.00 | 61 | 1009.2 |
| 20260509160017 | 73 | 246 | 0.0 | 4.0 | 0.00 | 0.20 | 0.00 | 62 | 1009.1 |
| 20260509154517 | 72 | 297 | 0.0 | 2.0 | 0.00 | 0.20 | 0.00 | 63 | 1009.2 |
| 20260509153009 | 70 | 232 | 0.0 | 3.0 | 0.00 | 0.20 | 0.00 | 69 | 1009.2 |
| 20260509151505 | 68 | 250 | 0.0 | 5.0 | 0.00 | 0.20 | 0.00 | 74 | 1009.1 |
| 20260509150003 | 66 | 271 | 0.0 | 4.0 | 0.00 | 0.20 | 0.00 | 82 | 1009.0 |
| 20260509144556 | 65 | 333 | 0.0 | 2.0 | 0.00 | 0.20 | 0.00 | 86 | 1009.0 |
| 20260509143055 | 64 | 100 | 0.0 | 2.0 | 0.00 | 0.20 | 0.00 | 89 | 1008.9 |
| 20260509141551 | 62 | 323 | 0.0 | 2.0 | 0.00 | 0.20 | 0.00 | 88 | 1008.9 |
| 20260509140059 | 61 | 79 | 0.0 | 1.0 | 0.00 | 0.20 | 0.00 | 89 | 1008.7 |
| 20260509134615 | 60 | 225 | 0.0 | 2.0 | 0.00 | 0.20 | 0.00 | 89 | 1008.8 |
| 20260509133043 | 59 | 110 | 0.0 | 2.0 | 0.00 | 0.20 | 0.00 | 89 | 1008.8 |
| 20260509131549 | 59 | 242 | 0.0 | 1.0 | 0.00 | 0.20 | 0.00 | 90 | 1009.0 |
| 20260509130041 | 59 | 20 | 0.0 | 0.0 | 0.00 | 0.20 | 0.00 | 90 | 1009.0 |
| 20260509124537 | 58 | 106 | 0.0 | 0.0 | 0.00 | 0.20 | 0.00 | 90 | 1009.0 |
| 20260509123037 | 58 | 252 | 0.0 | 1.0 | 0.00 | 0.20 | 0.00 | 90 | 1009.0 |
| 20260509121536 | 58 | 262 | 0.0 | 0.0 | 0.00 | 0.20 | 0.00 | 90 | 1008.8 |
| 20260509120036 | 57 | 280 | 0.0 | 1.0 | 0.00 | 0.20 | 0.00 | 90 | 1008.6 |
| 20260509114541 | 58 | 121 | 0.0 | 1.0 | 0.00 | 0.20 | 0.00 | 90 | 1008.6 |
| 20260509113034 | 58 | 208 | 0.0 | 0.0 | 0.00 | 0.20 | 0.00 | 90 | 1008.5 |
| 20260509111532 | 57 | 311 | 0.0 | 3.0 | 0.00 | 0.20 | 0.00 | 90 | 1008.5 |
| 20260509110030 | 57 | 288 | 0.0 | 3.0 | 0.00 | 0.20 | 0.00 | 90 | 1008.4 |
| 20260509104529 | 57 | 199 | 0.0 | 2.0 | 0.00 | 0.20 | 0.00 | 90 | 1008.4 |
| 20260509103027 | 57 | 342 | 0.0 | 0.0 | 0.00 | 0.20 | 0.00 | 90 | 1008.2 |
| 20260509101535 | 57 | 89 | 0.0 | 3.0 | 0.00 | 0.20 | 0.00 | 90 | 1008.1 |
| 20260509100026 | 57 | 255 | 0.0 | 1.0 | 0.00 | 0.20 | 0.00 | 90 | 1008.0 |
| 20260509094524 | 57 | 323 | 0.0 | 0.0 | 0.00 | 0.20 | 0.00 | 90 | 1007.8 |
| 20260509093025 | 57 | 142 | 0.0 | 1.0 | 0.00 | 0.20 | 0.00 | 90 | 1007.9 |
| 20260509091524 | 57 | 272 | 0.0 | 2.0 | 0.00 | 0.20 | 0.00 | 89 | 1007.7 |
| 20260509090023 | 57 | 221 | 0.0 | 2.0 | 0.00 | 0.20 | 0.00 | 89 | 1007.8 |
| 20260509084623 | 57 | 266 | 0.0 | 1.0 | 0.00 | 0.20 | 0.00 | 90 | 1007.8 |
| 20260509083021 | 57 | 81 | 0.0 | 1.0 | 0.00 | 0.20 | 0.00 | 90 | 1007.8 |
| 20260509081521 | 57 | 293 | 0.0 | 0.0 | 0.00 | 0.20 | 0.00 | 90 | 1007.7 |
| 20260509080021 | 57 | 276 | 0.0 | 1.0 | 0.00 | 0.20 | 0.00 | 90 | 1007.8 |
| 20260509074520 | 57 | 157 | 0.0 | 0.0 | 0.00 | 0.20 | 0.00 | 89 | 1007.6 |
| 20260509073018 | 57 | 157 | 0.0 | 0.0 | 0.00 | 0.20 | 0.00 | 89 | 1007.7 |
| 20260509071518 | 57 | 156 | 0.0 | 0.0 | 0.00 | 0.20 | 0.00 | 89 | 1007.8 |
| 20260509070017 | 57 | 156 | 0.0 | 0.0 | 0.00 | 0.20 | 0.00 | 89 | 1007.8 |
| 20260509064516 | 57 | 156 | 0.0 | 0.0 | 0.00 | 0.20 | 0.00 | 89 | 1007.8 |
| 20260509063015 | 57 | 156 | 0.0 | 0.0 | 0.00 | 0.20 | 0.00 | 89 | 1007.7 |
| 20260509061624 | 58 | 224 | 0.0 | 1.0 | 0.00 | 0.20 | 0.00 | 89 | 1007.8 |
| 20260509060012 | 58 | 103 | 0.0 | 1.0 | 0.00 | 0.20 | 0.00 | 89 | 1007.8 |
| 20260509054510 | 58 | 73 | 0.0 | 1.0 | 0.00 | 0.20 | 0.00 | 89 | 1007.9 |
| 20260509053010 | 58 | 182 | 0.0 | 1.0 | 0.00 | 0.20 | 0.00 | 89 | 1008.1 |
| 20260509051513 | 58 | 78 | 0.0 | 1.0 | 0.00 | 0.20 | 0.00 | 89 | 1007.9 |
| 20260509050005 | 58 | 120 | 0.0 | 1.0 | 0.00 | 0.20 | 0.00 | 89 | 1007.9 |